TimeEST,TemperatureF,Dew PointF,Humidity,Sea Level PressureIn,VisibilityMPH,Wind Direction,Wind SpeedMPH,Gust SpeedMPH,PrecipitationIn,Events,Conditions,WindDirDegrees,DateUTC
12:18 AM,46.4,46.4,100,30.25,3.0,Calm,Calm,-,N/A,,Clear,0,2012-12-04 05:18:00
12:39 AM,44.6,44.6,100,30.25,4.0,Calm,Calm,-,N/A,,Clear,0,2012-12-04 05:39:00
1:00 AM,44.6,44.6,100,30.25,3.0,Calm,Calm,-,N/A,,Clear,0,2012-12-04 06:00:00
1:21 AM,44.6,44.6,100,30.24,4.0,Calm,Calm,-,N/A,,Scattered Clouds,0,2012-12-04 06:21:00
1:42 AM,46.4,46.4,100,30.25,5.0,Calm,Calm,-,N/A,,Mostly Cloudy,0,2012-12-04 06:42:00
2:00 AM,46.4,46.4,100,30.25,5.0,East,3.5,-,N/A,,Overcast,100,2012-12-04 07:00:00
2:24 AM,48.2,48.2,100,30.25,7.0,Calm,Calm,-,N/A,,Mostly Cloudy,0,2012-12-04 07:24:00
2:48 AM,50.0,50.0,100,30.25,7.0,Calm,Calm,-,N/A,,Mostly Cloudy,0,2012-12-04 07:48:00
3:09 AM,50.0,50.0,100,30.24,7.0,SE,3.5,-,N/A,,Scattered Clouds,130,2012-12-04 08:09:00
3:30 AM,50.0,50.0,100,30.24,7.0,Calm,Calm,-,N/A,,Scattered Clouds,0,2012-12-04 08:30:00
3:51 AM,50.0,48.2,94,30.24,7.0,Calm,Calm,-,N/A,,Scattered Clouds,0,2012-12-04 08:51:00
4:12 AM,48.2,48.2,100,30.24,1.0,Calm,Calm,-,N/A,,Mist,0,2012-12-04 09:12:00
4:33 AM,48.2,48.2,100,30.24,0.8,Calm,Calm,-,N/A,,Mist,0,2012-12-04 09:33:00
4:54 AM,44.6,44.6,100,30.24,0.5,Calm,Calm,-,N/A,Fog,Fog,0,2012-12-04 09:54:00
5:15 AM,44.6,44.6,100,30.24,2.0,Calm,Calm,-,N/A,,Clear,0,2012-12-04 10:15:00
5:27 AM,44.6,44.6,100,30.24,3.0,Calm,Calm,-,N/A,,Clear,0,2012-12-04 10:27:00
5:45 AM,48.2,48.2,100,30.24,5.0,Calm,Calm,-,N/A,,Mostly Cloudy,0,2012-12-04 10:45:00
6:45 AM,46.4,46.4,100,30.25,6.0,Calm,Calm,-,N/A,,Mostly Cloudy,0,2012-12-04 11:45:00
7:45 AM,48.2,48.2,100,30.25,6.0,Calm,Calm,-,N/A,,Mostly Cloudy,0,2012-12-04 12:45:00
8:50 AM,51.8,51.8,100,30.26,5.0,Calm,Calm,-,N/A,,Mostly Cloudy,0,2012-12-04 13:50:00
9:45 AM,53.6,53.6,100,30.26,6.0,Calm,Calm,-,N/A,,Mostly Cloudy,0,2012-12-04 14:45:00
10:45 AM,55.4,51.8,88,30.25,6.0,SE,5.8,-,N/A,,Mostly Cloudy,130,2012-12-04 15:45:00
11:45 AM,59.0,53.6,82,30.21,7.0,SE,5.8,-,N/A,,Scattered Clouds,130,2012-12-04 16:45:00
12:45 PM,57.2,53.6,88,30.19,7.0,SE,5.8,-,N/A,,Scattered Clouds,130,2012-12-04 17:45:00
1:45 PM,59.0,53.6,82,30.16,7.0,ESE,4.6,-,N/A,,Partly Cloudy,110,2012-12-04 18:45:00
2:45 PM,60.8,53.6,77,30.14,7.0,SE,3.5,-,N/A,,Scattered Clouds,130,2012-12-04 19:45:00
3:45 PM,59.0,53.6,82,30.13,7.0,ESE,3.5,-,N/A,,Scattered Clouds,120,2012-12-04 20:45:00
4:45 PM,59.0,53.6,82,30.12,7.0,ESE,3.5,-,N/A,,Scattered Clouds,110,2012-12-04 21:45:00
5:50 PM,57.2,51.8,82,30.11,10.0,Calm,Calm,-,N/A,,Scattered Clouds,0,2012-12-04 22:50:00
6:45 PM,57.2,53.6,88,30.10,10.0,SSE,5.8,-,N/A,,Scattered Clouds,150,2012-12-04 23:45:00
7:50 PM,55.4,51.8,88,30.09,10.0,SSE,4.6,-,N/A,,Scattered Clouds,160,2012-12-05 00:50:00
9:45 PM,55.4,51.8,88,30.06,10.0,Calm,Calm,-,N/A,,Scattered Clouds,0,2012-12-05 02:45:00
10:15 PM,53.6,50.0,88,30.05,10.0,East,3.5,-,N/A,,Scattered Clouds,100,2012-12-05 03:15:00
11:18 PM,53.6,50.0,88,30.03,10.0,ESE,4.6,-,N/A,,Clear,110,2012-12-05 04:18:00
11:42 PM,51.8,50.0,94,30.02,10.0,Calm,Calm,-,N/A,,Clear,0,2012-12-05 04:42:00